Location: Unspecified
(0.0000°N, 0.0000°E)
Time: 07:47:50
(UTC+00:00)

XW-2C - Visible Passes

Search period start: 10 July 2020 00:00
Search period end: 20 July 2020 00:00
Orbit: 508 x 527 km, 97.5° (Epoch: 10 July)

Date Brightness Start Highest point End Pass type
(mag) Time Alt. Az. Time Alt. Az. Time Alt. Az.
10 Jul ? 05:29:31 10° NNE 05:33:17 73° E 05:37:04 10° S visible
11 Jul ? 05:15:31 10° NNE 05:19:05 41° ESE 05:22:40 10° S visible
12 Jul ? 05:01:47 10° NE 05:04:53 24° ESE 05:07:59 10° SSE visible
12 Jul ? 18:30:06 10° SW 18:31:36 12° WSW 18:33:06 10° WNW visible
13 Jul ? 04:48:31 10° ENE 04:50:41 15° ESE 04:52:52 10° SE visible
16 Jul ? 05:38:08 10° N 05:41:55 79° W 05:45:40 10° SSW visible
17 Jul ? 05:23:59 10° NNE 05:27:42 58° E 05:31:24 10° S visible
18 Jul ? 05:10:05 10° NE 05:13:29 33° ESE 05:16:53 10° SSE visible
19 Jul ? 04:56:30 10° NE 04:59:17 20° ESE 05:02:04 10° SSE visible
